Christchurch Automated, New Zealand

3:37 PM NZST on July 28, 2016 (GMT +1200)
Christchurch International

Weather History for NZCH - November, 2012

Change the Weather History Date:

Friday, November 2, 2012

  Actual Average Record
Temperature  
Mean Temperature 65 °F -  
Max Temperature 75 °F 62 °F 82 °F (1997)
Min Temperature 55 °F 43 °F 30 °F (1996)
Growing Degree Days 15 (Base 50)    
Moisture  
Dew Point 41 °F    
Average Humidity 45    
Maximum Humidity 72    
Minimum Humidity 24    
Precipitation  
Precipitation 0.00 in - - ()
Sea Level Pressure  
Sea Level Pressure 29.47 in    
Wind  
Wind Speed 7 mph ()    
Max Wind Speed 18 mph    
Max Gust Speed 33 mph    
Averages and records for this station are not official NWS values.
T = Trace of Precipitation, MM = Missing Value Source: Averaged Metar Reports

Daily Weather History Graph

Daily Weather History Graph

Search for Another Location

Airport or City:

Trip Planner

Search our weather history database for the weather conditions in past years. The results will help you decide how hot, cold, wet, or windy it might be!

Date:

Astronomy

Nov. 02, 2012 Rise Set
Actual Time 6:10 AM NZDT 8:16 PM NZDT
Civil Twilight 5:39 AM NZDT 8:48 PM NZDT
Nautical Twilight 5:01 AM NZDT 9:26 PM NZDT
Astronomical Twilight 4:19 AM NZDT 10:08 PM NZDT
Moon 11:21 PM NZDT (11/2) 8:01 AM NZDT (11/2)
Length of Visible Light 15h 08m
Length of Day
14h 05m
Waning Gibbous, 91% of the Moon is Illuminated
Nov 2
Waning Gibbous
Nov 7
Last Quarter
Nov 14
New
Nov 21
First Quarter
Nov 29
Full

Hourly Weather History & Observations

Time (NZDT) Temp. Dew Point Humidity Pressure Visibility Wind Dir Wind Speed Gust Speed Precip Events Conditions
12:00 AM 66.2 °F 42.8 °F 43% 29.65 in - NW 10.4 mph - N/A   Clear
1:00 AM 60.8 °F 48.2 °F 63% 29.65 in - ENE 6.9 mph - N/A   Clear
2:00 AM 60.8 °F 46.4 °F 59% 29.62 in - NNE 3.5 mph - N/A   Clear
3:00 AM 59.0 °F 46.4 °F 63% 29.59 in - NNE 5.8 mph - N/A   Clear
5:00 AM 62.6 °F 44.6 °F 52% 29.56 in - North 6.9 mph - N/A   Clear
6:00 AM 57.2 °F 46.4 °F 67% 29.56 in - NNE 2.3 mph - N/A   Clear
7:00 AM 55.4 °F 46.4 °F 72% 29.56 in - West 2.3 mph - N/A   Clear
8:00 AM 59.0 °F 46.4 °F 63% 29.56 in - WNW 5.8 mph - N/A   Clear
9:00 AM 60.8 °F 46.4 °F 59% 29.53 in - North 3.5 mph - N/A   Clear
10:00 AM 64.4 °F 46.4 °F 52% 29.50 in - WNW 4.6 mph - N/A   Clear
11:00 AM 68.0 °F 48.2 °F 49% 29.47 in - ENE 6.9 mph - N/A   Clear
12:00 PM 71.6 °F 41.0 °F 33% 29.44 in - NNW 13.8 mph - N/A   Clear
1:00 PM 75.2 °F 41.0 °F 29% 29.42 in - NNW 13.8 mph - N/A   Clear
2:00 PM 75.2 °F 35.6 °F 24% 29.42 in - NW 17.3 mph 33.4 mph N/A   Clear
3:00 PM 75.2 °F 37.4 °F 25% 29.39 in - NW 18.4 mph 33.4 mph N/A   Clear
4:00 PM 73.4 °F 35.6 °F 25% 29.36 in - WNW 17.3 mph 32.2 mph N/A   Clear
5:00 PM 71.6 °F 35.6 °F 27% 29.36 in - NW 17.3 mph 32.2 mph N/A   Clear
6:00 PM 68.0 °F 37.4 °F 33% 29.36 in - NNW 12.7 mph - N/A   Clear
7:00 PM 68.0 °F 35.6 °F 30% 29.36 in - NNW 11.5 mph - N/A   Clear
8:00 PM 64.4 °F 35.6 °F 34% 29.36 in - North 3.5 mph - N/A   Clear
9:00 PM 62.6 °F 37.4 °F 39% 29.39 in - NNW 3.5 mph - N/A   Clear
10:00 PM 60.8 °F 35.6 °F 39% 29.39 in - West 5.8 mph - N/A   Clear
11:00 PM 57.2 °F 37.4 °F 48% 29.39 in - WNW 8.1 mph - N/A   Clear